DW6083 Weather Reports


time (UTC)temp
C
wind
direction
speed
KPH
gust
KPH
rain 1hr
cm
rain 24hr
cm
rain mn
cm
humidity
%
barometer
mb
20260504003100 16 257 0.0 0.0 0.00 0.00 0.00 57 1016.0
20260504001611 17 257 0.0 0.0 0.00 0.00 0.00 58 1016.0
20260504000050 18 257 0.0 0.0 0.00 0.00 0.00 60 1016.2
20260503234546 18 257 0.0 0.0 0.00 0.00 0.00 57 1016.1
20260503233041 19 257 0.0 0.0 0.00 0.00 0.00 48 1016.1
20260503231538 -17 257 0.0 0.0 0.00 0.00 0.00 1016.3
20260503230032 -17 257 0.0 0.0 0.00 0.00 0.00 1016.3
20260503224528 -17 265 0.0 0.0 0.00 0.00 0.00 1016.5
20260503223025 -17 256 0.0 0.0 0.00 0.00 0.00 1016.4
20260503221529 -17 256 0.0 0.0 0.00 0.00 0.00 1016.5
20260503220017 -17 227 0.0 0.0 0.00 0.00 0.00 1016.4
20260503214510 -17 227 0.0 0.0 0.00 0.00 0.00 1016.5
20260503213010 -17 272 0.0 0.0 0.00 0.00 0.00 1016.5
20260503211501 21 266 0.0 3.2 0.00 0.00 0.00 39 1016.7
20260503210059 22 236 0.0 6.4 0.00 0.00 0.00 38 1016.7
20260503204557 22 184 0.0 0.0 0.00 0.00 0.00 39 1016.7
20260503203051 22 324 0.0 0.0 0.00 0.00 0.00 45 1016.8
20260503201547 21 5 0.0 0.0 0.00 0.00 0.00 44 1017.1
20260503200042 22 318 0.0 0.0 0.00 0.00 0.00 43 1017.3
20260503194537 22 223 0.0 0.0 0.00 0.00 0.00 44 1017.7
20260503193040 22 248 0.0 0.0 0.00 0.00 0.00 43 1017.9
20260503191528 21 270 0.0 0.0 0.00 0.00 0.00 47 1018.3
20260503190028 21 204 0.0 0.0 0.00 0.00 0.00 46 1018.6
20260503184525 20 321 0.0 0.0 0.00 0.00 0.00 47 1018.8
20260503183024 21 205 0.0 0.0 0.00 0.00 0.00 49 1018.9
20260503181524 20 173 0.0 0.0 0.00 0.00 0.00 51 1019.1
20260503180005 20 192 0.0 0.0 0.00 0.00 0.00 49 1019.3
20260503174501 19 321 0.0 0.0 0.00 0.00 0.00 53 1019.4
20260503173102 19 222 0.0 0.0 0.00 0.00 0.00 48 1019.5
20260503171552 18 208 0.0 0.0 0.00 0.00 0.00 51 1019.7
20260503081517 5 128 0.0 0.0 0.00 0.00 0.00 1 1017.2
20260503071600 6 128 0.0 0.0 0.00 0.00 0.00 1 1016.7
20260503054528 8 128 0.0 0.0 0.00 0.00 0.00 1 1016.6
20260503053035 8 128 0.0 0.0 0.00 0.00 0.00 1 1016.6
20260503051522 8 128 0.0 0.0 0.00 0.00 0.00 1 1016.4
20260503050015 9 128 0.0 0.0 0.00 0.00 0.00 1 1016.3
20260503044518 9 128 0.0 0.0 0.00 0.00 0.00 1 1016.1
20260503043006 9 128 0.0 0.0 0.00 0.00 0.00 1 1016.1
20260503041503 10 128 0.0 0.0 0.00 0.00 0.00 1 1015.9
20260503040106 10 128 0.0 0.0 0.00 0.00 0.00 1 1015.7
20260503034558 10 128 0.0 0.0 0.00 0.00 0.00 1 1015.8
20260503033048 10 128 0.0 0.0 0.00 0.00 0.00 1 1015.7
20260503031544 10 128 0.0 0.0 0.00 0.00 0.00 1 1015.5
20260503030042 11 128 0.0 0.0 0.00 0.00 0.00 1 1015.5
20260503024534 11 128 0.0 0.0 0.00 0.00 0.00 1 1015.4
20260503023032 11 128 0.0 0.0 0.00 0.00 0.00 1 1015.1
20260503021525 11 128 0.0 0.0 0.00 0.00 0.00 1 1015.0
20260503020032 11 128 0.0 1.6 0.00 0.00 0.00 1 1014.8
20260503014516 12 128 0.0 1.6 0.00 0.00 0.00 1 1014.4
20260503013012 12 5 0.0 0.0 0.00 0.00 0.00 1 1014.9
20260503011507 13 5 0.0 0.0 0.00 0.00 0.00 1 1014.8
20260503010005 13 342 0.0 0.0 0.00 0.00 0.00 1 1014.5
20260503004606 14 169 0.0 0.0 0.00 0.00 0.00 1 1013.1